TDRS 11

Last updated on Nov. 18, 2019, 4:21 a.m. UTC

1 39070U 13004A   19321.32057618  .00000084  00000-0  00000+0 0  9996
2 39070   4.1498 330.5728 0000944 332.9618  53.5611  1.00272236 24880
UTC
Height (km)
Latitude
Longitude
Inclination
Orbital Period
UTC large
Height (km)
Speed (km/s)
/
Latitude / Longitude
Inclination (degrees)
Orbital Period (minutes)
Azimuth
Elevation
Range (km)
Doppler Factor
iOS Compass Heading
iOS Angle

Next 30 passes for location: Hong Kong

Rise time Rise Azimuth (degrees) Set time Set Azimuth (degrees) Duration Max altitude (degrees)

No matching passes for this satellites